| time (UTC) | temp F | wind direction | speed MPH | gust MPH | rain 1hr in | rain 24hr in | rain mn in | humidity % | barometer mb |
| 20260504100509 | 64 | 0 | 1.0 | 11.0 | 0.00 | 0.00 | 0.00 | 57 | 1006.9 |
| 20260504081530 | 61 | 0 | 0.0 | 0.0 | 0.00 | 0.00 | 0.00 | 64 | 1007.7 |
| 20260504081012 | 62 | 0 | 0.0 | 0.0 | 0.00 | 0.00 | 0.00 | 63 | 1007.7 |
| 20260504080512 | 62 | 0 | 0.0 | 0.0 | 0.00 | 0.00 | 0.00 | 62 | 1007.9 |
| 20260504050510 | 66 | 0 | 0.0 | 3.0 | 0.00 | 0.00 | 0.00 | 57 | 1008.5 |
| 20260504045510 | 66 | 0 | 0.0 | 2.0 | 0.00 | 0.00 | 0.00 | 57 | 1008.6 |
| 20260504045014 | 66 | 0 | 0.0 | 3.0 | 0.00 | 0.00 | 0.00 | 56 | 1008.6 |
| 20260504044528 | 66 | 0 | 0.0 | 3.0 | 0.00 | 0.00 | 0.00 | 56 | 1008.7 |
| 20260504044009 | 66 | 250 | 0.0 | 3.0 | 0.00 | 0.00 | 0.00 | 57 | 1008.7 |
| 20260504043509 | 66 | 0 | 0.0 | 1.0 | 0.00 | 0.00 | 0.00 | 56 | 1008.7 |
| 20260504043042 | 65 | 0 | 0.0 | 0.0 | 0.00 | 0.00 | 0.00 | 56 | 1008.8 |
| 20260504042510 | 65 | 0 | 0.0 | 1.0 | 0.00 | 0.00 | 0.00 | 56 | 1008.9 |
| 20260504042011 | 66 | 0 | 0.0 | 1.0 | 0.00 | 0.00 | 0.00 | 56 | 1008.9 |
| 20260504041534 | 65 | 0 | 0.0 | 1.0 | 0.00 | 0.00 | 0.00 | 57 | 1009.0 |
| 20260504041009 | 65 | 0 | 0.0 | 1.0 | 0.00 | 0.00 | 0.00 | 57 | 1009.0 |
| 20260504040509 | 65 | 0 | 0.0 | 0.0 | 0.00 | 0.00 | 0.00 | 57 | 1009.1 |
| 20260504040028 | 66 | 0 | 0.0 | 0.0 | 0.00 | 0.00 | 0.00 | 57 | 1009.2 |
| 20260504035511 | 66 | 0 | 0.0 | 0.0 | 0.00 | 0.00 | 0.00 | 56 | 1009.2 |
| 20260504035010 | 66 | 0 | 0.0 | 0.0 | 0.00 | 0.00 | 0.00 | 56 | 1009.3 |
| 20260504034530 | 66 | 0 | 0.0 | 0.0 | 0.00 | 0.00 | 0.00 | 56 | 1009.3 |
| 20260504034010 | 66 | 0 | 0.0 | 0.0 | 0.00 | 0.00 | 0.00 | 56 | 1009.4 |
| 20260504033510 | 66 | 0 | 0.0 | 0.0 | 0.00 | 0.00 | 0.00 | 57 | 1009.4 |
| 20260504033029 | 66 | 0 | 0.0 | 0.0 | 0.00 | 0.00 | 0.00 | 57 | 1009.5 |
| 20260504032510 | 67 | 0 | 0.0 | 0.0 | 0.00 | 0.00 | 0.00 | 57 | 1009.5 |
| 20260504032010 | 67 | 0 | 0.0 | 0.0 | 0.00 | 0.00 | 0.00 | 57 | 1009.5 |
| 20260504031530 | 67 | 0 | 0.0 | 0.0 | 0.00 | 0.00 | 0.00 | 57 | 1009.6 |
| 20260504031009 | 67 | 0 | 0.0 | 0.0 | 0.00 | 0.00 | 0.00 | 57 | 1009.6 |
| 20260504030511 | 67 | 0 | 0.0 | 1.0 | 0.00 | 0.00 | 0.00 | 57 | 1009.7 |
| 20260504030036 | 67 | 0 | 0.0 | 1.0 | 0.00 | 0.00 | 0.00 | 56 | 1009.6 |
| 20260504025510 | 67 | 215 | 0.0 | 1.0 | 0.00 | 0.00 | 0.00 | 56 | 1009.7 |
| 20260504025012 | 67 | 0 | 0.0 | 0.0 | 0.00 | 0.00 | 0.00 | 56 | 1009.7 |
| 20260504024529 | 67 | 0 | 0.0 | 0.0 | 0.00 | 0.00 | 0.00 | 56 | 1009.7 |
| 20260504024009 | 68 | 0 | 0.0 | 0.0 | 0.00 | 0.00 | 0.00 | 56 | 1009.7 |
| 20260504023509 | 68 | 0 | 0.0 | 0.0 | 0.00 | 0.00 | 0.00 | 56 | 1009.7 |
| 20260504023030 | 68 | 0 | 0.0 | 0.0 | 0.00 | 0.00 | 0.00 | 56 | 1009.7 |
| 20260504022510 | 68 | 0 | 0.0 | 0.0 | 0.00 | 0.00 | 0.00 | 56 | 1009.7 |
| 20260504022011 | 68 | 0 | 0.0 | 0.0 | 0.00 | 0.00 | 0.00 | 56 | 1009.7 |
| 20260504021532 | 68 | 0 | 0.0 | 0.0 | 0.00 | 0.00 | 0.00 | 56 | 1009.7 |
| 20260504021008 | 68 | 0 | 0.0 | 0.0 | 0.00 | 0.00 | 0.00 | 55 | 1009.6 |
| 20260504020509 | 69 | 0 | 0.0 | 0.0 | 0.00 | 0.00 | 0.00 | 55 | 1009.7 |
| 20260504020036 | 69 | 0 | 0.0 | 0.0 | 0.00 | 0.00 | 0.00 | 54 | 1009.6 |
| 20260504015509 | 69 | 0 | 0.0 | 0.0 | 0.00 | 0.00 | 0.00 | 54 | 1009.6 |
| 20260504015009 | 69 | 0 | 0.0 | 0.0 | 0.00 | 0.00 | 0.00 | 54 | 1009.5 |
| 20260504014529 | 69 | 250 | 0.0 | 0.0 | 0.00 | 0.00 | 0.00 | 53 | 1009.5 |
| 20260504014010 | 69 | 0 | 0.0 | 8.0 | 0.00 | 0.00 | 0.00 | 53 | 1009.6 |
| 20260504013513 | 69 | 0 | 0.0 | 8.0 | 0.00 | 0.00 | 0.00 | 53 | 1009.5 |
| 20260504013035 | 69 | 0 | 0.0 | 0.0 | 0.00 | 0.00 | 0.00 | 52 | 1009.5 |
| 20260504012518 | 70 | 0 | 0.0 | 0.0 | 0.00 | 0.00 | 0.00 | 52 | 1009.5 |
| 20260504012010 | 70 | 0 | 0.0 | 1.0 | 0.00 | 0.00 | 0.00 | 52 | 1009.5 |
| 20260504011530 | 70 | 0 | 0.0 | 1.0 | 0.00 | 0.00 | 0.00 | 51 | 1009.5 |
| 20260504011013 | 70 | 0 | 0.0 | 0.0 | 0.00 | 0.00 | 0.00 | 51 | 1009.5 |
| 20260504010509 | 71 | 0 | 0.0 | 0.0 | 0.00 | 0.00 | 0.00 | 50 | 1009.5 |
| 20260504010030 | 71 | 0 | 0.0 | 1.0 | 0.00 | 0.00 | 0.00 | 50 | 1009.4 |
| 20260504005510 | 71 | 0 | 0.0 | 1.0 | 0.00 | 0.00 | 0.00 | 49 | 1009.5 |
| 20260504005010 | 72 | 218 | 0.0 | 1.0 | 0.00 | 0.00 | 0.00 | 49 | 1009.5 |
| 20260504004541 | 72 | 0 | 0.0 | 1.0 | 0.00 | 0.00 | 0.00 | 48 | 1009.5 |
| 20260504004010 | 72 | 0 | 0.0 | 1.0 | 0.00 | 0.00 | 0.00 | 47 | 1009.5 |
| 20260504003510 | 73 | 0 | 0.0 | 1.0 | 0.00 | 0.00 | 0.00 | 47 | 1009.5 |
| 20260504003030 | 73 | 0 | 0.0 | 1.0 | 0.00 | 0.00 | 0.00 | 47 | 1009.5 |
| 20260504002511 | 74 | 0 | 0.0 | 1.0 | 0.00 | 0.00 | 0.00 | 46 | 1009.5 |
| 20260504002010 | 75 | 0 | 0.0 | 1.0 | 0.00 | 0.00 | 0.00 | 45 | 1009.6 |
| 20260504001534 | 75 | 0 | 0.0 | 1.0 | 0.00 | 0.00 | 0.00 | 44 | 1009.6 |
| 20260504001010 | 76 | 0 | 0.0 | 4.0 | 0.00 | 0.00 | 0.00 | 44 | 1009.6 |
| 20260504000513 | 76 | 266 | 0.0 | 17.0 | 0.00 | 0.00 | 0.00 | 43 | 1009.7 |
| 20260504000028 | 76 | 0 | 1.0 | 17.0 | 0.00 | 0.00 | 0.00 | 41 | 1009.7 |
| 20260503235510 | 76 | 240 | 4.0 | 17.0 | 0.00 | 0.00 | 0.00 | 40 | 1009.7 |
| 20260503235008 | 77 | 0 | 0.0 | 6.0 | 0.00 | 0.00 | 0.00 | 43 | 1009.8 |
| 20260503234529 | 77 | 0 | 0.0 | 6.0 | 0.00 | 0.00 | 0.00 | 42 | 1009.7 |
| 20260503234013 | 77 | 0 | 0.0 | 2.0 | 0.00 | 0.00 | 0.00 | 42 | 1009.8 |
| 20260503233510 | 77 | 0 | 0.0 | 7.0 | 0.00 | 0.00 | 0.00 | 42 | 1009.8 |
| 20260503233029 | 77 | 0 | 0.0 | 7.0 | 0.00 | 0.00 | 0.00 | 40 | 1009.8 |
| 20260503232510 | 77 | 266 | 1.0 | 20.0 | 0.00 | 0.00 | 0.00 | 41 | 1009.8 |
| 20260503232011 | 77 | 259 | 5.0 | 20.0 | 0.00 | 0.00 | 0.00 | 38 | 1009.9 |
| 20260503231530 | 78 | 269 | 6.0 | 20.0 | 0.00 | 0.00 | 0.00 | 39 | 1009.8 |
| 20260503231013 | 78 | 0 | 0.0 | 12.0 | 0.00 | 0.00 | 0.00 | 41 | 1009.9 |
| 20260503230512 | 78 | 280 | 2.0 | 12.0 | 0.00 | 0.00 | 0.00 | 40 | 1009.8 |
| 20260503230034 | 78 | 0 | 0.0 | 14.0 | 0.00 | 0.00 | 0.00 | 41 | 1009.9 |
| 20260503225511 | 78 | 243 | 4.0 | 14.0 | 0.00 | 0.00 | 0.00 | 40 | 1009.9 |
| 20260503225011 | 78 | 240 | 4.0 | 11.0 | 0.00 | 0.00 | 0.00 | 40 | 1009.9 |
| 20260503224530 | 78 | 285 | 4.0 | 11.0 | 0.00 | 0.00 | 0.00 | 39 | 1009.9 |
| 20260503224009 | 78 | 264 | 2.0 | 14.0 | 0.00 | 0.00 | 0.00 | 40 | 1009.9 |
| 20260503223512 | 78 | 306 | 4.0 | 14.0 | 0.00 | 0.00 | 0.00 | 38 | 1009.9 |
| 20260503223031 | 78 | 0 | 1.0 | 11.0 | 0.00 | 0.00 | 0.00 | 39 | 1009.9 |
| 20260503222510 | 79 | 269 | 0.0 | 11.0 | 0.00 | 0.00 | 0.00 | 42 | 1009.9 |
| 20260503222010 | 79 | 251 | 0.0 | 8.0 | 0.00 | 0.00 | 0.00 | 42 | 1009.9 |
| 20260503221532 | 79 | 253 | 1.0 | 15.0 | 0.00 | 0.00 | 0.00 | 40 | 1009.8 |
| 20260503221011 | 79 | 285 | 3.0 | 15.0 | 0.00 | 0.00 | 0.00 | 40 | 1009.9 |
| 20260503220509 | 79 | 277 | 6.0 | 13.0 | 0.00 | 0.00 | 0.00 | 38 | 1010.0 |
| 20260503220035 | 79 | 252 | 0.0 | 13.0 | 0.00 | 0.00 | 0.00 | 39 | 1010.0 |
| 20260503215510 | 79 | 271 | 2.0 | 13.0 | 0.00 | 0.00 | 0.00 | 39 | 1010.0 |
| 20260503215007 | 79 | 269 | 5.0 | 14.0 | 0.00 | 0.00 | 0.00 | 38 | 1010.1 |
| 20260503214542 | 79 | 206 | 3.0 | 14.0 | 0.00 | 0.00 | 0.00 | 39 | 1010.2 |
| 20260503214008 | 79 | 282 | 0.0 | 13.0 | 0.00 | 0.00 | 0.00 | 39 | 1010.1 |
| 20260503213508 | 79 | 273 | 1.0 | 16.0 | 0.00 | 0.00 | 0.00 | 38 | 1010.2 |
| 20260503213034 | 79 | 280 | 9.0 | 16.0 | 0.00 | 0.00 | 0.00 | 37 | 1010.2 |
| 20260503212511 | 79 | 252 | 6.0 | 18.0 | 0.00 | 0.00 | 0.00 | 37 | 1010.3 |
| 20260503212013 | 79 | 0 | 6.0 | 18.0 | 0.00 | 0.00 | 0.00 | 37 | 1010.3 |
| 20260503211528 | 79 | 234 | 8.0 | 16.0 | 0.00 | 0.00 | 0.00 | 36 | 1010.1 |
| 20260503211008 | 79 | 0 | 3.0 | 17.0 | 0.00 | 0.00 | 0.00 | 40 | 1010.3 |
| 20260503210510 | 79 | 240 | 6.0 | 17.0 | 0.00 | 0.00 | 0.00 | 39 | 1010.3 |
| 20260503210026 | 79 | 282 | 8.0 | 17.0 | 0.00 | 0.00 | 0.00 | 38 | 1010.4 |
| 20260503205514 | 79 | 0 | 2.0 | 17.0 | 0.00 | 0.00 | 0.00 | 39 | 1010.4 |
| 20260503205013 | 78 | 259 | 5.0 | 17.0 | 0.00 | 0.00 | 0.00 | 41 | 1010.5 |
| 20260503204532 | 78 | 257 | 8.0 | 19.0 | 0.00 | 0.00 | 0.00 | 39 | 1010.6 |
| 20260503204009 | 78 | 233 | 9.0 | 19.0 | 0.00 | 0.00 | 0.00 | 42 | 1010.6 |
| 20260503203511 | 78 | 250 | 7.0 | 19.0 | 0.00 | 0.00 | 0.00 | 40 | 1010.7 |
| 20260503203028 | 78 | 229 | 8.0 | 20.0 | 0.00 | 0.00 | 0.00 | 40 | 1010.8 |
| 20260503202513 | 78 | 269 | 7.0 | 20.0 | 0.00 | 0.00 | 0.00 | 40 | 1010.9 |
| 20260503202013 | 79 | 262 | 3.0 | 13.0 | 0.00 | 0.00 | 0.00 | 40 | 1010.9 |
| 20260503201532 | 78 | 215 | 2.0 | 13.0 | 0.00 | 0.00 | 0.00 | 43 | 1010.9 |
| 20260503201009 | 78 | 265 | 2.0 | 14.0 | 0.00 | 0.00 | 0.00 | 42 | 1011.0 |
| 20260503200510 | 78 | 210 | 8.0 | 14.0 | 0.00 | 0.00 | 0.00 | 43 | 1011.1 |
| 20260503200028 | 78 | 234 | 1.0 | 14.0 | 0.00 | 0.00 | 0.00 | 45 | 1011.3 |
| 20260503195511 | 78 | 238 | 2.0 | 19.0 | 0.00 | 0.00 | 0.00 | 43 | 1011.4 |
| 20260503195009 | 77 | 241 | 8.0 | 19.0 | 0.00 | 0.00 | 0.00 | 41 | 1011.4 |
| 20260503194534 | 77 | 269 | 7.0 | 18.0 | 0.00 | 0.00 | 0.00 | 41 | 1011.4 |
| 20260503194009 | 78 | 174 | 2.0 | 19.0 | 0.00 | 0.00 | 0.00 | 43 | 1011.5 |
| 20260503193510 | 77 | 0 | 4.0 | 19.0 | 0.00 | 0.00 | 0.00 | 44 | 1011.5 |
| 20260503193030 | 77 | 217 | 6.0 | 15.0 | 0.00 | 0.00 | 0.00 | 44 | 1011.7 |
| 20260503192508 | 77 | 262 | 5.0 | 15.0 | 0.00 | 0.00 | 0.00 | 43 | 1011.8 |
| 20260503192013 | 77 | 290 | 6.0 | 15.0 | 0.00 | 0.00 | 0.00 | 43 | 1012.0 |
| 20260503191528 | 77 | 228 | 3.0 | 13.0 | 0.00 | 0.00 | 0.00 | 43 | 1012.0 |
| 20260503191046 | 77 | 0 | 1.0 | 10.0 | 0.00 | 0.00 | 0.00 | 46 | 1012.1 |
| 20260503190509 | 76 | 0 | 0.0 | 17.0 | 0.00 | 0.00 | 0.00 | 45 | 1012.2 |
| 20260503190038 | 76 | 262 | 7.0 | 17.0 | 0.00 | 0.00 | 0.00 | 44 | 1012.3 |
| 20260503185508 | 75 | 231 | 4.0 | 17.0 | 0.00 | 0.00 | 0.00 | 45 | 1012.3 |
| 20260503185008 | 76 | 243 | 6.0 | 13.0 | 0.00 | 0.00 | 0.00 | 45 | 1012.5 |
| 20260503184530 | 75 | 249 | 3.0 | 16.0 | 0.00 | 0.00 | 0.00 | 45 | 1012.5 |
| 20260503184012 | 75 | 233 | 8.0 | 16.0 | 0.00 | 0.00 | 0.00 | 44 | 1012.7 |
| 20260503183510 | 75 | 227 | 8.0 | 16.0 | 0.00 | 0.00 | 0.00 | 44 | 1012.6 |
| 20260503183037 | 75 | 0 | 1.0 | 18.0 | 0.00 | 0.00 | 0.00 | 46 | 1012.8 |
| 20260503182509 | 74 | 0 | 3.0 | 18.0 | 0.00 | 0.00 | 0.00 | 44 | 1012.8 |
| 20260503182011 | 74 | 229 | 7.0 | 18.0 | 0.00 | 0.00 | 0.00 | 44 | 1013.0 |
| 20260503181549 | 75 | 232 | 2.0 | 16.0 | 0.00 | 0.00 | 0.00 | 45 | 1013.0 |
| 20260503181010 | 74 | 229 | 2.0 | 18.0 | 0.00 | 0.00 | 0.00 | 44 | 1013.2 |
| 20260503180510 | 74 | 245 | 1.0 | 18.0 | 0.00 | 0.00 | 0.00 | 48 | 1013.5 |
| 20260503180041 | 73 | 217 | 3.0 | 14.0 | 0.00 | 0.00 | 0.00 | 46 | 1013.6 |
| 20260503175513 | 73 | 301 | 2.0 | 13.0 | 0.00 | 0.00 | 0.00 | 46 | 1013.7 |
| 20260503175009 | 73 | 253 | 3.0 | 13.0 | 0.00 | 0.00 | 0.00 | 47 | 1013.8 |
| 20260503174527 | 73 | 250 | 1.0 | 14.0 | 0.00 | 0.00 | 0.00 | 47 | 1014.0 |
| 20260503174011 | 72 | 226 | 3.0 | 15.0 | 0.00 | 0.00 | 0.00 | 46 | 1014.0 |
| 20260503173507 | 72 | 242 | 3.0 | 15.0 | 0.00 | 0.00 | 0.00 | 47 | 1014.1 |
| 20260503173030 | 72 | 262 | 1.0 | 15.0 | 0.00 | 0.00 | 0.00 | 47 | 1014.2 |
| 20260503172510 | 72 | 0 | 3.0 | 18.0 | 0.00 | 0.00 | 0.00 | 49 | 1014.3 |
| 20260503172010 | 72 | 243 | 5.0 | 18.0 | 0.00 | 0.00 | 0.00 | 45 | 1014.3 |
| 20260503171528 | 72 | 231 | 6.0 | 18.0 | 0.00 | 0.00 | 0.00 | 45 | 1014.3 |
| 20260503171009 | 71 | 245 | 1.0 | 9.0 | 0.00 | 0.00 | 0.00 | 48 | 1014.4 |
| 20260503170509 | 71 | 246 | 1.0 | 9.0 | 0.00 | 0.00 | 0.00 | 47 | 1014.5 |
| 20260503151009 | 63 | 0 | 0.0 | 10.0 | 0.00 | 0.00 | 0.00 | 52 | 1016.1 |
| 20260503150511 | 62 | 264 | 0.0 | 10.0 | 0.00 | 0.00 | 0.00 | 51 | 1016.3 |
| 20260503131011 | 51 | 0 | 0.0 | 4.0 | 0.00 | 0.00 | 0.00 | 67 | 1016.9 |
| 20260503130511 | 51 | 0 | 0.0 | 3.0 | 0.00 | 0.00 | 0.00 | 68 | 1016.7 |
| 20260503110516 | 43 | 0 | 0.0 | 0.0 | 0.00 | 0.00 | 0.00 | 77 | 1017.0 |